OPS 4682 DEB, 38454

Orbit data source: Space-Track

OPS 4682 DEB, 38454 is space debris in LEO originally from a launch on Sat, 03 Apr 1965 UTC launched from the Air Force Western Test Range (AFWTR). Debris objects in space refer to the collection of defunct objects orbiting the Earth. Examples of debris include non-operational satellites, rocket bodies, and fragments generated from explosions, collisions, or faulty payload assembly.

Loading next visibility...
Identifier
38454, 1965-027FK
Orbit
LEO
Country
Flag of USUS
Related business
Manufacturer
Unknown
Mission
Spacecraft
Bus & Motor
Unknown
Mass
Unknown
Launch date (UTC)
1965-04-03 (61 years ago)
Launch vehicle
Unknown
Launch site
Air Force Western Test Range (AFWTR)
Object type
Payload
Rocket body
Debris
Shape & HBR
Unknown shape, 0.1 m
Radar Cross Section
Small (<0.1 m²)

Expand to show TLE details & history
Last TLE update: 18 hours ago

TLE from 18 hours ago
0 OPS 4682 DEB
1 38454U 65027FK  26104.14784088 -.00000092  00000-0 -35173-3 0  9992
2 38454  90.2474   5.6444 0036019  26.1606 334.1324 12.95302592574313
Epoch: 2026-04-14T03:32Z
TLE epoch observation values (Epoch: 2026-04-14T03:32:53.452Z)
Latitude
0.00007°
Longitude
110.09343°
Altitude
1,258.616 km
Speed
7.238 km/s
True Right ascension
00h 22m 34s
True Declination
0° 00' 00"
Sunlit
Object was in daylight at epoch
Visualization orbit readout
Latitude
Unknown
Longitude
Unknown
Altitude
Unknown
Speed
Unknown
Apparent Right ascension
Unknown
Apparent Declination
Unknown
Sunlit
N/A
Visualization observer readout
Local Sidereal Time
04:22:24
Azimuth
Unknown
Elevation
Unknown
Doppler factor
Unknown
Orbital elements
Apogee altitude
1,305.256 km
Perigee altitude
1,250.105 km
Semi-major axis
7,655.818 km
Eccentricity
0.0036
Inclination
90.2474°
RAAN
5.6444°
Arg. of periapsis
26.1606°
True anomaly
333.95159°
Mean anomaly
334.1324°
Eccentric anomaly
334.04207°
Mean motion
3.24008 °/min
Orbital period
111.11 mins
BSTAR
-0.00035173
Loading maneuver chart data...
Computing Atmospheric mass density...
Loading historical data...
Loading historical data...
Loading historical data...
Loading historical data...
Loading historical data...
Loading historical data...
Loading historical data...

Documentation

Showing up to 5 results
|